Warning: Javascript must be enabled to use all the features on this page!


Page Loading - Please Wait...

Click to hideNews Bulletins

Streamflow Measurements for the Nation


USGS 11313460 SAN JOAQUIN R A PRISONERS PT NR TERMINOUS CA


San Joaquin County, California
Hydrologic Unit Code 18040003
Latitude  38°03'34", Longitude 121°33'26" NAD83
Output formats
HTML table with channel data
HTML table without channel data
Tab-separated data with channel data
Tab-separated data without channel data
Graph of data
Reselect output format
Meas.
Number
  Date       Time Time
Datum
Measurement
Used?
  Who Measuring
Agency
Stream
flow
(ft3/s)
Gage
Height
(ft)
GH
Change
(ft)
Meas.
Duration
(hr)
Meas.
Rated
  Control Flow
Adjust.
Code
 
6512021-09-07 09:31:39PSTYesACONLEN/BGRIUSGS5610021.20 Poor NONE
6502021-09-07 09:21:10PSTYesACONLEN/BGRIUSGS5720021.30 Poor NONE
6492021-09-07 09:11:29PSTYesACONLEN/BGRIUSGS5490021.36 Poor NONE
6482021-09-07 09:02:04PSTYesACONLEN/BGRIUSGS5600021.44 Poor NONE
6472021-09-07 08:53:02PSTYesACONLEN/BGRIUSGS5710021.51 Poor NONE
6462021-09-07 08:44:47PSTYesACONLEN/BGRIUSGS5770021.58 Poor NONE
6452021-06-15 11:41:22PSTYesAConlen/BGriUSGS5530021.21 Poor NONE
6442021-06-15 11:31:21PSTYesAConlen/BGriUSGS5520021.28 Poor NONE
6432021-06-15 11:12:26PSTYesAConlen/BGriUSGS5620021.46 Poor NONE
6422021-06-15 11:01:05PSTYesAConlen/BGriUSGS5670021.55 Poor NONE
6412021-06-15 10:52:22PSTYesAConlen/BGriUSGS5570021.63 Poor NONE
6402021-06-15 10:44:10PSTYesAConlen/BGriUSGS5540021.69 Poor NONE
6392021-04-09 10:12:56PSTYesACONLEN/BGRIUSGS1950020.18 Poor NONE
6382021-04-09 10:05:51PSTYesACONLEN/BGRIUSGS2580020.17 Poor NONE
6372021-04-09 09:57:01PSTYesACONLEN/BGRIUSGS2660020.16 Poor NONE
6362021-04-09 09:44:47PSTYesACONLEN/BGRIUSGS3240020.17 Poor NONE
6352021-04-09 09:34:47PSTYesACONLEN/BGRIUSGS3280020.20 Poor NONE
6342021-04-09 09:25:12PSTYesACONLEN/BGRIUSGS3790020.23 Poor NONE
6332021-02-18 11:29:38PSTYesACONLEN,BGRIUSGS3720021.56 Poor NONE
6322021-02-18 11:19:40PSTYesACONLEN,BGRIUSGS3280021.65 Poor NONE
6312021-02-18 11:09:41PSTYesACONLEN,BGRIUSGS2900021.71 Poor NONE
6302021-02-18 10:59:48PSTYesACONLEN,BGRIUSGS2220021.79 Poor NONE
6292021-02-18 10:50:03PSTYesACONLEN,BGRIUSGS1560021.86 Poor NONE
6282021-02-18 10:38:23PSTYesACONLEN,BGRIUSGS874021.95 Poor NONE
6272021-01-29 12:02:14PSTYesAC, BGUSGS-1100021.78 Poor NONE
6262021-01-29 11:53:51PSTYesAC, BGUSGS-255021.70 Poor NONE
6252021-01-29 11:46:04PSTYesAC, BGUSGS283021.65 Poor NONE
6242021-01-29 11:36:52PSTYesAC, BGUSGS1090021.59 Poor NONE
6232021-01-29 11:26:51PSTYesAC, BGUSGS1740021.54 Poor NONE
6222021-01-29 11:18:02PSTYesAC, BGUSGS2270021.51 Poor NONE
6212020-11-19 12:58:40PSTYesBG, ACUSGS3340021.28 Poor NONE
6202020-11-19 12:51:34PSTYesBG, ACUSGS3550021.31 Poor NONE
6192020-11-19 12:43:34PSTYesBG, ACUSGS3820021.35 Poor NONE
6182020-11-19 12:34:43PSTYesBG, ACUSGS3670021.39 Poor NONE
6172020-11-19 12:27:13PSTYesBG, ACUSGS3510021.43 Poor NONE
6162020-11-19 12:20:31PSTYesBG, ACUSGS3690021.47 Poor NONE
6152020-08-13 10:56:24PSTYesJEH/EBDUSGS-5130021.24 Poor NONE
6142020-08-13 10:44:48PSTYesJEH/EBDUSGS-5060021.17 Poor NONE
6132020-08-13 10:33:31PSTYesJEH/EBDUSGS-5190021.07 Poor NONE
6122020-08-13 10:21:50PSTYesJEH/EBDUSGS-5040020.96 Poor NONE
6112020-08-13 10:10:15PSTYesJEH/EBDUSGS-4870020.90 Poor NONE
6102020-08-13 09:59:14PSTYesJEH/EBDUSGS-4430020.83 Poor NONE
6092020-06-30 10:41:26PSTYesAC, ZHUSGS-5580021.44 Poor NONE
6082020-06-30 10:30:44PSTYesAC, ZHUSGS-5360021.36 Poor NONE
6072020-06-30 10:20:31PSTYesAC, ZHUSGS-5250021.29 Poor NONE
6062020-06-30 10:10:41PSTYesAC, ZHUSGS-5040021.20 Poor NONE
6052020-06-30 10:00PSTYesAC, ZHUSGS-4560021.12 Poor NONE
6042020-06-30 09:47:53PSTYesAC, ZHUSGS-3980021.02 Poor NONE
6032020-05-28 10:23PSTYesNVB, ALCUSGS5110022.65 Poor NONE
6022020-05-28 10:09:29PSTYesNVB, ALCUSGS4780022.76 Poor NONE
6012020-05-28 09:56:17PSTYesNVB, ALCUSGS4400022.87 Poor NONE
6002020-05-28 09:41:58PSTYesNVB, ALCUSGS3910022.98 Poor NONE
5992020-05-28 09:28:10PSTYesNVB, ALCUSGS3080023.09 Poor NONE
5982020-05-28 09:15:06PSTYesNVB, ALCUSGS2080023.19 Poor NONE
5972020-01-21 11:53:33PSTYesAC, JHUSGS-6400023.01 Poor NONE
5962020-01-21 11:43:56PSTYesAC, JHUSGS-6460022.92 Poor NONE
5952020-01-21 11:32:40PSTYesAC, JHUSGS-63300 Poor NONE
5942020-01-21 11:05:08PSTYesAC, JHUSGS-6440022.57 Poor NONE
5932020-01-21 10:57:16PSTYesAC, JHUSGS-6630022.49 Poor NONE
5922020-01-21 10:48:01PSTYesAC, JHUSGS-6430022.41 Poor NONE
5912019-11-07 10:46:34PSTYesAC/MIUSGS-6050021.45 Poor NONE
5902019-11-07 10:33:33PSTYesAC/MIUSGS-6470021.34 Poor NONE
5892019-11-07 10:20:10PSTYesAC/MIUSGS-6040021.21 Poor NONE
5882019-11-07 10:07:28PSTYesAC/MIUSGS-5740021.09 Poor NONE
5872019-11-07 09:55:26PSTYesAC/MIUSGS-5150020.97 Poor NONE
5862019-11-07 09:42:35PSTYesAC/MIUSGS-5140020.85 Poor NONE
5852019-09-19 10:35:27PSTYesHR, ACUSGS3740021.92 Poor NONE
5842019-09-19 10:24:09PSTYesHR, ACUSGS3100022.00 Poor NONE
5832019-09-19 10:12:29PSTYesHR, ACUSGS2880022.09 Poor NONE
5822019-09-19 09:59:59PSTYesHR, ACUSGS2070022.17 Poor NONE
5812019-09-19 09:46:17PSTYesHR, ACUSGS1550022.26 Poor NONE
5802019-09-19 09:33:13PSTYesHR, ACUSGS5590 22.34 Poor NONE
5792019-07-31 10:25:32PSTYesAC, TDUSGS5310020.65 Good NONE
5782019-07-31 10:11:44PSTYesAC, TDUSGS5330020.76 Good NONE
5772019-07-31 09:58:40PSTYesAC, TDUSGS5590020.86 Good NONE
5762019-07-31 09:45:04PSTYesAC, TDUSGS5790020.99 Good NONE
5752019-07-31 09:31:51PSTYesAC, TDUSGS5690021.11 Good NONE
5742019-07-31 09:18:17PSTYesAC, TDUSGS5660021.24 Good NONE
5732019-06-05 10:23:43PSTYesMP, ACUSGS6290022.02 Good OTHR
5722019-06-05 10:14:01PSTYesMP, ACUSGS6610022.10 Good OTHR
5712019-06-05 10:04:28PSTYesMP, ACUSGS6360022.19 Good OTHR
5702019-06-05 09:55:03PSTYesMP, ACUSGS6700022.28 Good OTHR
5692019-06-05 09:44:04PSTYesMP, ACUSGS6340022.39 Good OTHR
5682019-06-05 09:32:52PSTYesMP, ACUSGS6510022.49 Good OTHR
5672019-03-26 09:53:31PSTYesMP, ACUSGS3400023.65 Good NONE
5662019-03-26 09:43:02PSTYesMP, ACUSGS2550023.72 Good NONE
5652019-03-26 09:32:17PSTYesMP, ACUSGS1920023.78 Good NONE
5642019-03-26 09:21:58PSTYesMP, ACUSGS1050023.85 Fair NONE
5632019-03-26 09:11:50PSTYesMP, ACUSGS82323.90 Good NONE
5622019-03-26 09:01:35PSTYesMP, ACUSGS-494023.94 Good NONE
5612019-01-29 15:18:50PSTYesAC/JHUSGS5690022.53 Good NONE
5602019-01-29 15:10:14PSTYesAC/JHUSGS5550022.60 Good NONE
5592019-01-29 15:02:11PSTYesAC/JHUSGS5510022.66 Good NONE
5582019-01-29 14:53:53PSTYesAC/JHUSGS5330022.73 Good NONE
5572019-01-29 13:57:30PSTYesAC/JHUSGS3570023.19 Fair NONE
5562019-01-29 13:47:42PSTYesAC/JHUSGS3060023.27 Fair NONE
5552018-11-28 11:44:37PSTYesMP, ACUSGS1080022.67 Good NONE
5542018-11-28 11:32:31PSTYesMP, ACUSGS535022.73 Good NONE
5532018-11-28 11:20:32PSTYesMP, ACUSGS-330022.79 Good NONE
5522018-11-28 11:08:36PSTYesMP, ACUSGS-1060022.84 Good NONE
5512018-11-28 10:56:36PSTYesMP, ACUSGS-1830022.86 Good NONE
5502018-11-28 10:45:09PSTYesMP, ACUSGS-2420022.86 Good NONE
5492018-11-01 08:58:06PSTNo
5482018-10-04 13:35:18PSTYesMP/AC/HRUSGS-4400022.78 GoodUnspecifedNONE
5472018-10-04 13:23:41PSTYesMP/AC/HRUSGS-4250022.74 GoodUnspecifedNONE
5462018-10-04 13:08:53PSTYesMP/AC/HRUSGS-4730022.68 GoodUnspecifedNONE
5452018-10-04 12:57:15PSTYesMP/AC/HRUSGS-5080022.61 GoodUnspecifedNONE
5442018-10-04 12:46:41PSTYesMP/AC/HRUSGS-5080022.53 GoodUnspecifedNONE
5432018-10-04 12:36:56PSTYesMP/AC/HRUSGS-5320022.48 GoodUnspecifedNONE
5422018-08-23 09:49:17PSTYesCC/MP/TDUSGS4020020.39 Good NONE
5412018-08-23 09:44:09PSTYesCC/MP/TDUSGS3980020.39 Good NONE
5402018-08-23 09:38:35PSTYesCC/MP/TDUSGS4170020.45 Good NONE
5392018-08-23 09:32:48PSTYesCC/MP/TDUSGS4220020.48 Good NONE
5382018-08-23 09:26:58PSTYesCC/MP/TDUSGS4220020.51 Good NONE
5372018-08-23 09:21:10PSTYesCC/MP/TDUSGS4430020.56 Good NONE
5362018-07-25 11:53:09PSTYesCC/ACUSGS-450020.37 Fair NONE
5352018-07-25 11:46:37PSTYesCC/ACUSGS37620.32 Fair NONE
5342018-07-25 11:37:48PSTYesCC/ACUSGS962020.26 Fair NONE
5332018-07-25 11:28:17PSTYesCC/ACUSGS1550020.22 Fair NONE
5322018-07-25 11:18:22PSTYesCC/ACUSGS2240020.19 Fair NONE
5312018-07-25 11:08:53PSTYesCC/ACUSGS2680020.18 Fair NONE
5302018-05-29 14:36:26PSTYesTV/CCUSGS-6180021.25 Good NONE
5292018-05-29 14:23:38PSTYesTV/CCUSGS-5800021.11 Good NONE
5282018-05-29 14:09:57PSTYesTV/CCUSGS-5460020.98 Good NONE
5272018-05-29 13:57:27PSTYesTV/CCUSGS-5010020.86 Good NONE
5262018-05-29 13:45:14PSTYesTV/CCUSGS-4040020.74 Good NONE
5252018-05-29 13:32:25PSTYesTV/CCUSGS-3170020.61 Good NONE
5242018-03-27 11:56PSTYesNWS/CCUSGS-5140022.71 Good NONE
5232018-03-27 11:47:16PSTYesNWS/CCUSGS-5330022.65 Good NONE
5222018-03-27 11:38:34PSTYesNWS/CCUSGS-5230022.51 Good NONE
5212018-03-27 11:28:55PSTYesNWS/CCUSGS-5690022.51 Good NONE
5202018-03-27 11:17:54PSTYesNWS/CCUSGS-5540022.39 Good NONE
5192018-03-27 11:08:38PSTYesNWS/CCUSGS-5950022.33 Unspecified NONE
5182018-02-08 14:04PSTYesTV/BSUSGS5310022.04 Unspecified NONE
5172018-02-08 13:53PSTYesTV/BSUSGS4790022.13 Unspecified NONE
5162018-02-08 13:42:30PSTYesTV/BSUSGS4670022.21 Unspecified NONE
5152018-02-08 13:31:30PSTYesTV/BSUSGS4330022.30 Unspecified NONE
5142018-02-08 13:20:30PSTYesTV/BSUSGS3950022.38 Unspecified NONE
5132018-02-08 13:10:30PSTYesTV/BSUSGS3210022.47 Unspecified NONE
5122017-12-05 13:23:30PSTYesJB, BSUSGS-5950021.50 Unspecified NONE
5112017-12-05 13:10:30PSTYesJB, BSUSGS-5210021.38 Unspecified NONE
5102017-12-05 12:57:30PSTYesJB, BSUSGS-4520021.56 Unspecified NONE
5092017-12-05 12:44:30PSTYesJB, BSUSGS-3300021.12 Unspecified NONE
5082017-12-05 12:32PSTYesJB, BSUSGS-1990021.00 Unspecified NONE
5072017-12-05 12:19:41PSTYesJB, BSUSGS-930020.88 Unspecified NONE
5062017-10-24 13:01:30PSTYesTV,BSUSGS2750021.02 Unspecified NONE
5052017-10-24 12:51PSTYesTV,BSUSGS2890021.04 Unspecified NONE
5042017-10-24 12:39:30PSTYesTV,BSUSGS3160021.07 Unspecified NONE
5032017-10-24 12:28PSTYesTV,BSUSGS3310021.12 Unspecified NONE
5022017-10-24 12:14:30PSTYesTV,BSUSGS3630021.17 Unspecified NONE
5012017-10-24 12:00:30PSTYesTV,BSUSGS3950021.23 Unspecified NONE
2017-08-15 11:32:51PSTNo
5002017-06-08 12:48PSTYesBS, CVUSGS-262020.74 Unspecified NONE
4992017-06-08 12:37PSTYesBS, CVUSGS543020.64 Unspecified NONE
4982017-06-08 12:24:30PSTYesBS, CVUSGS1950020.54 Unspecified NONE
4972017-06-08 12:11PSTYesBS, CVUSGS2750020.48 Unspecified NONE
4962017-06-08 11:58:30PSTYesBS, CVUSGS3550020.45 Unspecified NONE
4952017-06-08 11:45PSTYesBS, CVUSGS3920020.46 Unspecified NONE
4942017-05-04 11:41:30PSTYesBS/BFUSGS-1970023.42 Unspecified NONE
4932017-05-04 11:30:30PSTYesBS/BFUSGS-1720023.46 Unspecified NONE
4922017-05-04 11:19PSTYesBS/BFUSGS-2400023.41 Unspecified NONE
4912017-05-04 11:00:30PSTYesBS/BFUSGS-3030023.34 Unspecified NONE
4902017-05-04 10:45PSTYesBS/BFUSGS-3520023.28 Unspecified NONE
4892017-05-04 10:29:30PSTYesBS/BFUSGS-3800023.20 Unspecified NONE
4882017-03-03 13:13:30PSTYesBS/RJUSGS6520022.53 Unspecified NONE
4872017-03-03 13:03PSTYesBS/RJUSGS6510022.61 Unspecified NONE
4862017-03-03 12:52:30PSTYesBS/RJUSGS6700022.68 Unspecified NONE
4852017-03-03 12:43:30PSTYesBS/RJUSGS6620022.75 Unspecified NONE
4842017-03-03 12:35PSTYesBS/RJUSGS6740022.80 Unspecified NONE
4832017-03-03 12:27PSTYesBS/RJUSGS6540022.85 Unspecified NONE
4822017-01-31 12:05PSTYesBS/WFUSGS4840021.93 Unspecified NONE
4812017-01-31 11:53:30PSTYesBS/WFUSGS4830022.00 Unspecified NONE
4802017-01-31 11:42PSTYesBS/WFUSGS5020022.08 Unspecified NONE
4792017-01-31 11:30:30PSTYesBS/WFUSGS5060022.16 Unspecified NONE
4782017-01-31 11:17:30PSTYesBS/WFUSGS5260022.25 Unspecified NONE
4772017-01-31 11:05PSTYesBS/WFUSGS5000022.33 Unspecified NONE
4662016-12-20 11:05:30PSTYesTM, BSUSGS-3250022.90 Unspecified NONE
4652016-12-20 10:52PSTYesTM, BSUSGS-3870022.93 Unspecified NONE
4642016-12-20 10:39PSTYesTM, BSUSGS-4210022.90 Unspecified NONE
4632016-12-20 10:26PSTYesTM, BSUSGS-4810022.85 Unspecified NONE
4622016-12-20 10:14PSTYesTM, BSUSGS-4910022.80 Unspecified NONE
4612016-12-20 10:03PSTYesTM, BSUSGS-5240022.74 Unspecified NONE
4602016-12-13 11:40PSTYesTV,BSUSGS-6410021.73 Unspecified NONE
4592016-12-13 11:26:30PSTYesTV,BSUSGS-6110021.59 Unspecified NONE
4582016-12-13 11:14:30PSTYesTV,BSUSGS-5380021.46 Unspecified NONE
4572016-12-13 11:02PSTYesTV,BSUSGS-4360021.32 Unspecified NONE
4562016-12-13 10:50PSTYesTV,BSUSGS-3280021.20 Unspecified NONE
4552016-12-13 10:35:30PSTYesTV,BSUSGS-2320021.05 Unspecified NONE
4542016-09-13 11:06:04PSTYesTV, CHUSGS-4730020.86 Fair NONE
4532016-09-13 10:53:08PSTYesTV, CHUSGS-3870020.73 Fair NONE
4522016-09-13 10:41:19PSTYesTV, CHUSGS-2830020.62 Fair NONE
4512016-09-13 10:29:53PSTYesTV, CHUSGS-1910020.51 Fair NONE
4502016-09-13 10:17:43PSTYesTV, CHUSGS-440020.41 Fair NONE
4492016-09-13 10:05:06PSTYesTV, CHUSGS643020.30 Fair NONE
4482016-06-28 11:51:17PSTYesTVWF,BLUSGS-1040022.12 Fair NONE
4472016-06-28 11:36:08PSTYesTVWF,BLUSGS-1690022.17 Fair NONE
4462016-06-28 11:23:18PSTYesTVWF,BLUSGS-2440022.18 Fair NONE
4452016-06-28 11:11:46PSTYesTVWF,BLUSGS-2790022.17 Fair NONE
4442016-06-28 10:23:03PSTYesTVWF,BLUSGS-4380022.04 Fair NONE
4432016-06-28 10:10:45PSTYesTVWF,BLUSGS-4770021.98 Fair NONE
4422016-04-19 12:28:30PSTYesRJ, CHUSGS-5630021.12 Unspecified NONE
4412016-04-19 12:07:30PSTYesRJ, CHUSGS-4920020.99 Unspecified NONE
4402016-04-19 11:03PSTYesRJ, CHUSGS-98820.40 Unspecified NONE
4392016-04-19 10:44:30PSTYesRJ, CHUSGS1280020.27 Unspecified NONE
4382016-04-19 10:01:30PSTYesRJ, CHUSGS3460020.25 Unspecified NONE
4372016-04-19 09:49:30PSTYesRJ, CHUSGS3780020.23 Unspecified NONE
4362016-02-16 15:14:17PSTYesae,ch,rjUSGS5710021.90 FairClearNONE
4352016-02-16 14:57:51PSTYesae,ch,rjUSGS5690022.05 FairClearNONE
4342016-02-16 14:40:47PSTYesae,ch,rjUSGS5850022.20 FairClearNONE
4332016-02-16 14:21:33PSTYesae,ch,rjUSGS5620022.35 FairClearNONE
4322016-02-16 14:09:45PSTYesae,ch,rjUSGS5620022.45 FairClearNONE
4312016-02-16 13:57:55PSTYesae,ch,rjUSGS5150022.56 FairClearNONE
4302015-09-17 14:30PSTYesET/CHUSGS-17200 PoorDebrisLightNONE
4292015-09-17 14:16PSTYesET/CHUSGS-7590 PoorDebrisLightNONE
4282015-09-17 14:03PSTYesET/CHUSGS4320 PoorDebrisLightNONE
4272015-09-17 13:50PSTYesET/CHUSGS11400 PoorDebrisLightNONE
4262015-09-17 13:36PSTYesET/CHUSGS20800 PoorDebrisLightNONE
4252015-09-17 13:22PSTYesET/CHUSGS25900 PoorDebrisLightNONE
4242015-04-16 12:08PSTYesET/TVUSGS-6220021.01 PoorDebrisLightNONE
4232015-04-16 11:57PSTYesET/TVUSGS-6270020.91 PoorDebrisLightNONE
4222015-04-16 11:45PSTYesET/TVUSGS-5980020.80 PoorDebrisLightNONE
4212015-04-16 11:34PSTYesET/TVUSGS-5680020.70 PoorDebrisLightNONE
4202015-04-16 10:34PSTYesET/TVUSGS-1430020.12 PoorDebrisLightNONE
4192015-04-16 10:22PSTYesET/TVUSGS-524020.04 PoorDebrisLightNONE
4182014-10-01 09:55PSTYesND/DAUSGS-4150022.18 UnspecifiedUnspecifedNONE
4172014-10-01 09:44PSTYesND/DAUSGS-4420022.13 UnspecifiedUnspecifedNONE
4162014-10-01 09:34PSTYesND/DAUSGS-4660022.08 UnspecifiedUnspecifedNONE
4152014-10-01 09:23PSTYesND/DAUSGS-4780022.02 UnspecifiedUnspecifedNONE
4142014-10-01 09:13PSTYesND/DAUSGS-4820021.95 UnspecifiedUnspecifedNONE
4132014-10-01 09:02PSTYesND/DAUSGS-4930021.87 UnspecifiedUnspecifedNONE
4122014-10-01 08:53PSTYesND/DAUSGS-5140021.80 UnspecifiedUnspecifedNONE
4112014-10-01 08:42PSTYesND/DAUSGS-5220021.73 UnspecifiedUnspecifedNONE
4102014-10-01 08:03PSTYesND/DAUSGS-5340021.44 UnspecifiedUnspecifedNONE
4092014-06-24 13:03PSTYesYESUSGS-60400 Unspecified NONE
4082014-06-24 12:52PSTYesYESUSGS-58700 Unspecified NONE
4072014-06-24 12:39PSTYesYESUSGS-57400 Unspecified NONE
4062014-06-24 12:22PSTYesYESUSGS-53600 Unspecified NONE
4052014-06-24 12:08PSTYesYESUSGS-48000 Unspecified NONE
4042014-06-24 11:52PSTYesYESUSGS-37100 Unspecified NONE
4032013-12-12 16:58PSTYesYESUSGS54100 Unspecified NONE
4022013-12-12 16:44PSTYesYESUSGS54100 Unspecified NONE
4012013-12-12 16:29PSTYesYESUSGS53800 Unspecified NONE
4002013-12-12 16:19PSTYesYESUSGS52500 Unspecified NONE
3992013-12-12 16:06PSTYesYESUSGS53900 Unspecified NONE
3982013-12-12 15:54PSTYesYESUSGS49800 Unspecified NONE
3972013-12-12 15:44PSTYesYESUSGS50900 Unspecified NONE
3962013-12-12 15:32PSTYesYESUSGS51300 Unspecified NONE
3952013-12-12 15:20PSTYesYESUSGS48500 Unspecified NONE
3942013-12-12 15:08PSTYesYESUSGS40900 Unspecified NONE
3932013-12-12 14:58PSTYesYESUSGS35200 Unspecified NONE
3922013-12-12 14:40PSTYesYESUSGS25000 Unspecified NONE
3912013-12-12 14:18PSTYesYESUSGS15000 Unspecified NONE
3902013-12-12 14:04PSTYesYESUSGS-7260 Unspecified NONE
3892013-12-12 13:50PSTYesYESUSGS-15500 Unspecified NONE
3882013-11-07 16:13PSTYesYESUSGS-61700 Unspecified NONE
3872013-11-07 15:17PSTYesYESUSGS-56300 Unspecified NONE
3862013-11-07 14:55PSTYesYESUSGS-50000 Unspecified NONE
3852013-11-07 14:39PSTYesYESUSGS-40800 Unspecified NONE
3842013-11-07 13:56PSTYesYESUSGS-19300 Unspecified NONE
3832013-11-07 13:36PSTYesYESUSGS8670 Unspecified NONE
3822013-11-07 13:14PSTYesYESUSGS17400 Unspecified NONE
3812013-11-07 12:55PSTYesYESUSGS27900 Unspecified NONE
3802013-11-07 12:27PSTYesYESUSGS34800 Unspecified NONE
3792013-11-07 12:07PSTYesYESUSGS38000 Unspecified NONE
3782013-11-07 11:51PSTYesYESUSGS39000 Unspecified NONE
3772013-11-07 11:30PSTYesYESUSGS47000 Unspecified NONE
3762013-11-07 11:08PSTYesYESUSGS40300 Unspecified NONE
3752013-11-07 10:49PSTYesYESUSGS37000 Unspecified NONE
3742013-11-05 16:26PSTYesYESUSGS-55800 Unspecified NONE
3732013-11-05 16:11PSTYesYESUSGS-59100 Unspecified NONE
3722013-11-05 15:58PSTYesYESUSGS-58300 Unspecified NONE
3712013-11-05 15:30PSTYesYESUSGS-61300 Unspecified NONE
3702013-11-05 15:12PSTYesYESUSGS-65200 Unspecified NONE
3692013-11-05 14:53PSTYesYESUSGS-68700 Unspecified NONE
3682011-05-18 18:58PSTYesYESUSGS-19000 Unspecified NONE
3672011-05-18 18:49PSTYesYESUSGS-23100 Unspecified NONE
3662011-05-18 18:37PSTYesYESUSGS-27500 Unspecified NONE
3652011-05-18 18:27PSTYesYESUSGS-32000 Unspecified NONE
3642011-05-18 18:16PSTYesYESUSGS-34900 Unspecified NONE
3632011-05-18 18:07PSTYesYESUSGS-38400 Unspecified NONE
3622011-05-18 17:55PSTYesYESUSGS-40400 Unspecified NONE
3612011-05-18 17:45PSTYesYESUSGS-43600 Unspecified NONE
3602011-05-18 17:34PSTYesYESUSGS-45900 Unspecified NONE
3592011-05-18 17:24PSTYesYESUSGS-48300 Unspecified NONE
3582011-05-18 17:12PSTYesYESUSGS-49900 Unspecified NONE
3572011-05-18 17:02PSTYesYESUSGS-52300 Unspecified NONE
3562011-05-18 16:24PSTYesYESUSGS-57800 Unspecified NONE
3552011-05-18 16:12PSTYesYESUSGS-60300 Unspecified NONE
3542011-05-18 15:59PSTYesYESUSGS-61400 Unspecified NONE
3532011-05-18 15:48PSTYesYESUSGS-60500 Unspecified NONE
3522011-05-18 15:37PSTYesYESUSGS-61300 Unspecified NONE
3512011-05-18 15:27PSTYesYESUSGS-60400 Unspecified NONE
3502011-05-18 15:17PSTYesYESUSGS-59400 Unspecified NONE
3492011-05-18 15:06PSTYesYESUSGS-56500 Unspecified NONE
3482011-05-18 14:55PSTYesYESUSGS-49900 Unspecified NONE
3472011-05-18 14:46PSTYesYESUSGS-44400 Unspecified NONE
3462011-05-18 14:29PSTYesYESUSGS-28600 Unspecified NONE
3452011-05-18 14:18PSTYesYESUSGS-19700 Unspecified NONE
3442011-05-18 14:09PSTYesYESUSGS-5910 Unspecified NONE
3432011-05-18 13:58PSTYesYESUSGS1770 Unspecified NONE
3422011-05-18 13:49PSTYesYESUSGS14100 Unspecified NONE
3412011-05-18 13:37PSTYesYESUSGS22600 Unspecified NONE
3402011-05-18 13:29PSTYesYESUSGS30900 Unspecified NONE
3392011-05-18 13:17PSTYesYESUSGS37000 Unspecified NONE
3382011-05-18 13:07PSTYesYESUSGS42200 Unspecified NONE
3372011-05-18 12:53PSTYesYESUSGS47800 Unspecified NONE
3362011-05-18 12:45PSTYesYESUSGS52000 Unspecified NONE
3352011-05-18 12:33PSTYesYESUSGS53900 Unspecified NONE
3342011-05-18 11:38PSTYesYESUSGS65000 Unspecified NONE
3332011-05-18 11:22PSTYesYESUSGS63100 Unspecified NONE
3322011-05-18 11:10PSTYesYESUSGS61200 Unspecified NONE
3312011-05-18 10:50PSTYesYESUSGS65800 Unspecified NONE
3302011-05-18 10:42PSTYesYESUSGS66300 Unspecified NONE
3292011-05-18 10:29PSTYesYESUSGS67500 Unspecified NONE
3282011-05-18 10:21PSTYesYESUSGS66600 Unspecified NONE
3272011-05-18 10:07PSTYesYESUSGS66300 Unspecified NONE
3262011-05-18 09:58PSTYesYESUSGS66800 Unspecified NONE
3252011-05-18 09:28PSTYesYESUSGS65700 Unspecified NONE
3242011-05-18 09:18PSTYesYESUSGS65400 Unspecified NONE
3232011-05-18 09:05PSTYesYESUSGS65700 Unspecified NONE
3222011-05-18 08:57PSTYesYESUSGS64500 Unspecified NONE
3212011-05-18 08:41PSTYesYESUSGS66700 Unspecified NONE
3202011-05-18 08:31PSTYesYESUSGS63600 Unspecified NONE
3192011-05-18 08:19PSTYesYESUSGS66900 Unspecified NONE
3182011-05-18 08:09PSTYesYESUSGS67200 Unspecified NONE
3172011-05-18 07:58PSTYesYESUSGS70000 Unspecified NONE
3162011-05-18 07:48PSTYesYESUSGS66600 Unspecified NONE
3152011-05-18 07:34PSTYesYESUSGS68000 Unspecified NONE
3142011-05-18 07:26PSTYesYESUSGS68000 Unspecified NONE
3132011-05-18 07:00PSTYesYESUSGS69500 Unspecified NONE
3122011-05-18 06:44PSTYesYESUSGS71400 Unspecified NONE
3112011-03-21 13:13PSTYesYESUSGS39600 Unspecified NONE
3102011-03-21 13:06PSTYesYESUSGS43300 Unspecified NONE
3092011-03-21 12:57PSTYesYESUSGS45900 Unspecified NONE
3082011-03-21 12:49PSTYesYESUSGS47800 Unspecified NONE
3072011-03-21 12:42PSTYesYESUSGS48800 Unspecified NONE
3062011-03-21 12:34PSTYesYESUSGS51700 Unspecified NONE
3052010-01-25 13:49PSTYesYESUSGS42600 Unspecified NONE
3042010-01-25 13:42PSTYesYESUSGS40900 Unspecified NONE
3032010-01-25 13:32PSTYesYESUSGS35300 Unspecified NONE
3022010-01-25 13:23PSTYesYESUSGS31000 Unspecified NONE
3012010-01-25 13:13PSTYesYESUSGS24000 Unspecified NONE
3002010-01-25 13:04PSTYesYESUSGS17900 Unspecified NONE
2992009-08-18 17:21PSTYesYESUSGS-3340 Unspecified NONE
2982009-08-18 17:12PSTYesYESUSGS-9270 Unspecified NONE
2972009-08-18 17:05PSTYesYESUSGS-13400 Unspecified NONE
2962009-08-18 16:55PSTYesYESUSGS-18100 Unspecified NONE
2952009-08-18 16:45PSTYesYESUSGS-22300 Unspecified NONE
2942009-08-18 16:34PSTYesYESUSGS-29000 Unspecified NONE
2932009-08-18 16:26PSTYesYESUSGS-31900 Unspecified NONE
2922009-08-18 16:17PSTYesYESUSGS-35200 Unspecified NONE
2912009-08-18 16:10PSTYesYESUSGS-36400 Unspecified NONE
2902009-08-18 15:59PSTYesYESUSGS-39900 Unspecified NONE
2892009-08-18 15:53PSTYesYESUSGS-41200 Unspecified NONE
2882009-08-18 15:43PSTYesYESUSGS-43400 Unspecified NONE
2872009-08-18 15:36PSTYesYESUSGS-44600 Unspecified NONE
2862009-08-18 15:24PSTYesYESUSGS-47200 Unspecified NONE
2852009-08-18 15:16PSTYesYESUSGS-49100 Unspecified NONE
2842009-08-18 15:00PSTYesYESUSGS-51000 Unspecified NONE
2832009-08-18 14:53PSTYesYESUSGS-52100 Unspecified NONE
2822009-08-18 14:39PSTYesYESUSGS-53900 Unspecified NONE
2812009-08-18 14:32PSTYesYESUSGS-55000 Unspecified NONE
2802009-08-18 14:21PSTYesYESUSGS-57700 Unspecified NONE
2792009-08-18 14:12PSTYesYESUSGS-58800 Unspecified NONE
2782009-08-18 13:54PSTYesYESUSGS-61300 Unspecified NONE
2772009-08-18 13:46PSTYesYESUSGS-61500 Unspecified NONE
2762009-08-18 13:36PSTYesYESUSGS-63300 Unspecified NONE
2752009-08-18 13:28PSTYesYESUSGS-63500 Unspecified NONE
2742009-08-18 13:08PSTYesYESUSGS-63500 Unspecified NONE
2732009-08-18 12:59PSTYesYESUSGS-63600 Unspecified NONE
2722009-08-18 12:50PSTYesYESUSGS-63200 Unspecified NONE
2712009-08-18 12:35PSTYesYESUSGS-57100 Unspecified NONE
2702009-08-18 12:26PSTYesYESUSGS-53800 Unspecified NONE
2692009-08-18 12:19PSTYesYESUSGS-51100 Unspecified NONE
2682009-08-18 12:11PSTYesYESUSGS-46500 Unspecified NONE
2672009-08-18 12:02PSTYesYESUSGS-41300 Unspecified NONE
2662009-08-18 11:53PSTYesYESUSGS-32500 Unspecified NONE
2652009-08-18 11:44PSTYesYESUSGS-24400 Unspecified NONE
2642009-08-18 11:25PSTYesYESUSGS-3230 Unspecified NONE
2632009-08-18 10:20PSTYesYESUSGS36300 Unspecified NONE
2622009-08-18 09:38PSTYesYESUSGS47000 Unspecified NONE
2612009-08-18 09:29PSTYesYESUSGS47000 Unspecified NONE
2602009-08-18 08:48PSTYesYESUSGS51400 Unspecified NONE
2592009-08-18 08:38PSTYesYESUSGS52300 Unspecified NONE
2582009-08-18 08:10PSTYesYESUSGS52200 Unspecified NONE
2572009-08-18 07:59PSTYesYESUSGS52100 Unspecified NONE
2562009-08-18 07:52PSTYesYESUSGS52100 Unspecified NONE
2552009-08-18 07:36PSTYesYESUSGS53800 Unspecified NONE
2542009-08-18 07:26PSTYesYESUSGS51100 Unspecified NONE
2532009-08-18 07:17PSTYesYESUSGS51500 Unspecified NONE
2522009-08-18 07:02PSTYesYESUSGS52000 Unspecified NONE
2512008-12-17 11:04PSTYesYESUSGS26500 Unspecified NONE
2502008-12-17 10:53PSTYesYESUSGS8260 Unspecified NONE
2492008-12-17 10:39PSTYesYESUSGS937 Unspecified NONE
2482008-12-17 10:27PSTYesYESUSGS-10600 Unspecified NONE
2472008-12-17 10:13PSTYesYESUSGS-16700 Unspecified NONE
2462008-12-17 10:04PSTYesYESUSGS-24000 Unspecified NONE
2452008-06-17 19:13PSTYesYESUSGS2410 Unspecified NONE
2442008-06-17 19:06PSTYesYESUSGS-346 Unspecified NONE
2432008-06-17 18:58PSTYesYESUSGS-3400 Unspecified NONE
2422008-06-17 18:52PSTYesYESUSGS-7210 Unspecified NONE
2412008-06-17 18:43PSTYesYESUSGS-12200 Unspecified NONE
2402008-06-17 18:36PSTYesYESUSGS-14700 Unspecified NONE
2392008-06-17 18:22PSTYesYESUSGS-20400 Unspecified NONE
2382008-06-17 18:16PSTYesYESUSGS-22300 Unspecified NONE
2372008-06-17 18:07PSTYesYESUSGS-25900 Unspecified NONE
2362008-06-17 17:51PSTYesYESUSGS-30800 Unspecified NONE
2352008-06-17 17:44PSTYesYESUSGS-31200 Unspecified NONE
2342008-06-17 17:35PSTYesYESUSGS-33600 Unspecified NONE
2332008-06-17 17:27PSTYesYESUSGS-35600 Unspecified NONE
2322008-06-17 17:19PSTYesYESUSGS-37000 Unspecified NONE
2312008-06-17 17:07PSTYesYESUSGS-39000 Unspecified NONE
2302008-06-17 16:57PSTYesYESUSGS-40000 Unspecified NONE
2292008-06-17 16:38PSTYesYESUSGS-42800 Unspecified NONE
2282008-06-17 16:30PSTYesYESUSGS-45000 Unspecified NONE
2272008-06-17 16:23PSTYesYESUSGS-45500 Unspecified NONE
2262008-06-17 16:15PSTYesYESUSGS-48300 Unspecified NONE
2252008-06-17 16:08PSTYesYESUSGS-48900 Unspecified NONE
2242008-06-17 15:59PSTYesYESUSGS-49300 Unspecified NONE
2232008-06-17 15:52PSTYesYESUSGS-50300 Unspecified NONE
2222008-06-17 15:43PSTYesYESUSGS-52300 Unspecified NONE
2212008-06-17 15:23PSTYesYESUSGS-53900 Unspecified NONE
2202008-06-17 15:13PSTYesYESUSGS-56200 Unspecified NONE
2192008-06-17 15:06PSTYesYESUSGS-54900 Unspecified NONE
2182008-06-17 14:56PSTYesYESUSGS-57100 Unspecified NONE
2172008-06-17 14:50PSTYesYESUSGS-56900 Unspecified NONE
2162008-06-17 14:41PSTYesYESUSGS-56000 Unspecified NONE
2152008-06-17 14:34PSTYesYESUSGS-56300 Unspecified NONE
2142008-06-17 14:25PSTYesYESUSGS-57200 Unspecified NONE
2132008-06-17 14:02PSTYesYESUSGS-51800 Unspecified NONE
2122008-06-17 13:51PSTYesYESUSGS-46800 Unspecified NONE
2112008-06-17 13:45PSTYesYESUSGS-43400 Unspecified NONE
2102008-06-17 13:35PSTYesYESUSGS-38700 Unspecified NONE
2092008-06-17 13:27PSTYesYESUSGS-33200 Unspecified NONE
2082008-06-17 13:17PSTYesYESUSGS-26300 Unspecified NONE
2072008-06-17 13:09PSTYesYESUSGS-17800 Unspecified NONE
2062008-06-17 13:02PSTYesYESUSGS-10200 Unspecified NONE
2052008-06-17 12:54PSTYesYESUSGS-5230 Unspecified NONE
2042008-06-17 12:47PSTYesYESUSGS4270 Unspecified NONE
2032008-06-17 12:39PSTYesYESUSGS8710 Unspecified NONE
2022008-06-17 12:32PSTYesYESUSGS16700 Unspecified NONE
2012008-06-17 12:23PSTYesYESUSGS21000 Unspecified NONE
2002008-06-17 12:15PSTYesYESUSGS27000 Unspecified NONE
1992008-06-17 12:06PSTYesYESUSGS30600 Unspecified NONE
1982008-06-17 11:59PSTYesYESUSGS34300 Unspecified NONE
1972008-06-17 11:34PSTYesYESUSGS41800 Unspecified NONE
1962008-06-17 11:27PSTYesYESUSGS44400 Unspecified NONE
1952008-06-17 11:17PSTYesYESUSGS46400 Unspecified NONE
1942008-06-17 11:09PSTYesYESUSGS47200 Unspecified NONE
1932008-06-17 10:57PSTYesYESUSGS48400 Unspecified NONE
1922008-06-17 10:49PSTYesYESUSGS50000 Unspecified NONE
1912008-06-17 10:36PSTYesYESUSGS51100 Unspecified NONE
1902008-06-17 10:10PSTYesYESUSGS52600 Unspecified NONE
1892008-06-17 10:03PSTYesYESUSGS53400 Unspecified NONE
1882008-06-17 09:26PSTYesYESUSGS55100 Unspecified NONE
1872008-06-17 09:19PSTYesYESUSGS53500 Unspecified NONE
1862008-06-17 08:43PSTYesYESUSGS55400 Unspecified NONE
1852008-06-17 08:36PSTYesYESUSGS53700 Unspecified NONE
1842008-06-17 08:28PSTYesYESUSGS55200 Unspecified NONE
1832008-06-17 08:21PSTYesYESUSGS54800 Unspecified NONE
1822008-06-17 07:54PSTYesYESUSGS54600 Unspecified NONE
1812008-06-17 07:48PSTYesYESUSGS52900 Unspecified NONE
1802008-06-17 07:39PSTYesYESUSGS54200 Unspecified NONE
1792008-06-17 07:32PSTYesYESUSGS53400 Unspecified NONE
1782008-06-17 07:23PSTYesYESUSGS54800 Unspecified NONE
1772008-06-17 07:16PSTYesYESUSGS55600 Unspecified NONE
1762008-06-17 06:50PSTYesYESUSGS56600 Unspecified NONE
1752008-06-17 06:42PSTYesYESUSGS56300 Unspecified NONE
1742008-06-17 06:34PSTYesYESUSGS56400 Unspecified NONE
1732008-06-17 06:26PSTYesYESUSGS57500 Unspecified NONE
1722008-01-15 13:40PSTYesYESUSGS52100 Unspecified NONE
1712008-01-15 13:28PSTYesYESUSGS52200 Unspecified NONE
1702008-01-15 13:11PSTYesYESUSGS51300 Unspecified NONE
1692008-01-15 12:50PSTYesYESUSGS55900 Unspecified NONE
1682008-01-15 12:26PSTYesYESUSGS47800 Unspecified NONE
1672008-01-15 12:11PSTYesYESUSGS43000 Unspecified NONE
1662007-11-27 14:24PSTYesYESUSGS-55600 Unspecified NONE
1652007-11-27 14:13PSTYesYESUSGS-53900 Unspecified NONE
1642007-11-27 14:04PSTYesYESUSGS-50000 Unspecified NONE
1632007-11-27 13:47PSTYesYESUSGS-44300 Unspecified NONE
1622007-11-27 13:38PSTYesYESUSGS-37400 Unspecified NONE
1612007-07-30 18:51PSTYesYESUSGS-24500 Unspecified NONE
1602007-07-30 18:36PSTYesYESUSGS-29300 Unspecified NONE
1592007-07-30 18:26PSTYesYESUSGS-34400 Unspecified NONE
1582007-07-30 18:17PSTYesYESUSGS-36900 Unspecified NONE
1572007-07-30 18:08PSTYesYESUSGS-38900 Unspecified NONE
1562007-07-30 17:56PSTYesYESUSGS-41600 Unspecified NONE
1552007-07-30 17:46PSTYesYESUSGS-43600 Unspecified NONE
1542007-07-30 17:36PSTYesYESUSGS-45200 Unspecified NONE
1532007-07-30 17:27PSTYesYESUSGS-46400 Unspecified NONE
1522007-07-30 17:17PSTYesYESUSGS-47700 Unspecified NONE
1512007-07-30 17:09PSTYesYESUSGS-49300 Unspecified NONE
1502007-07-30 16:59PSTYesYESUSGS-50700 Unspecified NONE
1492007-07-30 16:33PSTYesYESUSGS-54600 Unspecified NONE
1482007-07-30 16:14PSTYesYESUSGS-58300 Unspecified NONE
1472007-07-30 16:03PSTYesYESUSGS-58700 Unspecified NONE
1462007-07-30 15:50PSTYesYESUSGS-59800 Unspecified NONE
1452007-07-30 15:36PSTYesYESUSGS-63100 Unspecified NONE
1442007-07-30 14:53PSTYesYESUSGS-62100 Unspecified NONE
1432007-07-30 14:41PSTYesYESUSGS-59100 Unspecified NONE
1422007-07-30 14:27PSTYesYESUSGS-55700 Unspecified NONE
1412007-07-30 13:55PSTYesYESUSGS-36300 Unspecified NONE
1402007-07-30 13:43PSTYesYESUSGS-24300 Unspecified NONE
1392007-07-30 13:27PSTYesYESUSGS-7570 Unspecified NONE
1382007-07-30 13:17PSTYesYESUSGS3530 Unspecified NONE
1372007-07-30 13:02PSTYesYESUSGS13500 Unspecified NONE
1362007-07-30 12:53PSTYesYESUSGS22300 Unspecified NONE
1352007-07-30 12:04PSTYesYESUSGS39100 Unspecified NONE
1342007-07-30 11:52PSTYesYESUSGS43400 Unspecified NONE
1332007-07-30 11:37PSTYesYESUSGS44700 Unspecified NONE
1322007-07-30 11:00PSTYesYESUSGS48400 Unspecified NONE
1312007-07-30 10:14PSTYesYESUSGS51700 Unspecified NONE
1302007-07-30 09:54PSTYesYESUSGS51700 Unspecified NONE
1292007-07-30 09:45PSTYesYESUSGS51600 Unspecified NONE
1282007-07-30 09:11PSTYesYESUSGS50500 Unspecified NONE
1272007-07-30 09:02PSTYesYESUSGS51100 Unspecified NONE
1262007-07-30 08:49PSTYesYESUSGS52000 Unspecified NONE
1252007-07-30 08:41PSTYesYESUSGS52700 Unspecified NONE
1242007-07-02 16:55PSTYesunknownUSGS-59200 UnspecifiedUnspecifedNONE
1232007-07-02 16:46PSTYesunknownUSGS-61300 UnspecifiedUnspecifedNONE
1222007-07-02 16:29PSTYesunknownUSGS-60800 UnspecifiedUnspecifedNONE
1212007-07-02 16:19PSTYesunknownUSGS-61700 UnspecifiedUnspecifedNONE
1202007-07-02 16:05PSTYesunknownUSGS-59800 UnspecifiedUnspecifedNONE
1192007-07-02 15:56PSTYesunknownUSGS-59500 UnspecifiedUnspecifedNONE
1182007-07-02 15:45PSTYesunknownUSGS-58100 UnspecifiedUnspecifedNONE
1172007-07-02 15:34PSTYesunknownUSGS-54500 UnspecifiedUnspecifedNONE
1162007-07-02 15:21PSTYesunknownUSGS-49400 UnspecifiedUnspecifedNONE
1152007-07-02 15:06PSTYesunknownUSGS-37600 UnspecifiedUnspecifedNONE
1142007-07-02 14:56PSTYesunknownUSGS-30000 UnspecifiedUnspecifedNONE
1132007-07-02 14:46PSTYesunknownUSGS-19900 UnspecifiedUnspecifedNONE
1122007-07-02 14:37PSTYesunknownUSGS-12100 UnspecifiedUnspecifedNONE
1112007-07-02 14:29PSTYesunknownUSGS-4190 UnspecifiedUnspecifedNONE
1102007-07-02 14:21PSTYesunknownUSGS4750 UnspecifiedUnspecifedNONE
1092007-07-02 14:12PSTYesunknownUSGS10600 UnspecifiedUnspecifedNONE
1082007-07-02 14:02PSTYesunknownUSGS18800 UnspecifiedUnspecifedNONE
1072007-07-02 13:54PSTYesunknownUSGS23000 UnspecifiedUnspecifedNONE
1062007-07-02 13:37PSTYesunknownUSGS31400 UnspecifiedUnspecifedNONE
1052007-07-02 13:10PSTYesunknownUSGS40100 UnspecifiedUnspecifedNONE
1042007-07-02 13:02PSTYesunknownUSGS41400 UnspecifiedUnspecifedNONE
1032007-07-02 12:43PSTYesunknownUSGS44400 UnspecifiedUnspecifedNONE
1022007-07-02 12:35PSTYesunknownUSGS45800 UnspecifiedUnspecifedNONE
1012007-07-02 12:23PSTYesunknownUSGS46600 UnspecifiedUnspecifedNONE
1002007-07-02 12:15PSTYesunknownUSGS47600 UnspecifiedUnspecifedNONE
992007-07-02 12:00PSTYesunknownUSGS49500 UnspecifiedUnspecifedNONE
982007-07-02 11:52PSTYesunknownUSGS49200 UnspecifiedUnspecifedNONE
972007-07-02 11:42PSTYesunknownUSGS50000 UnspecifiedUnspecifedNONE
962007-07-02 11:34PSTYesunknownUSGS49800 UnspecifiedUnspecifedNONE
952007-07-02 11:24PSTYesunknownUSGS50100 UnspecifiedUnspecifedNONE
942007-07-02 11:16PSTYesunknownUSGS51800 UnspecifiedUnspecifedNONE
932007-04-04 16:42PSTYesunknownUSGS-52000 UnspecifiedUnspecifedNONE
922007-04-04 16:28PSTYesunknownUSGS-52700 UnspecifiedUnspecifedNONE
912007-04-04 16:14PSTYesunknownUSGS-53500 UnspecifiedUnspecifedNONE
902007-04-04 16:00PSTYesunknownUSGS-55000 UnspecifiedUnspecifedNONE
892007-04-04 15:35PSTYesunknownUSGS-56700 UnspecifiedUnspecifedNONE
882007-04-04 15:21PSTYesunknownUSGS-56300 UnspecifiedUnspecifedNONE
872007-04-04 15:05PSTYesunknownUSGS-52100 UnspecifiedUnspecifedNONE
862007-04-04 14:50PSTYesunknownUSGS-49400 UnspecifiedUnspecifedNONE
852007-04-04 14:35PSTYesunknownUSGS-46600 UnspecifiedUnspecifedNONE
842007-04-04 14:20PSTYesunknownUSGS-37600 UnspecifiedUnspecifedNONE
832007-04-04 14:08PSTYesunknownUSGS-27100 UnspecifiedUnspecifedNONE
822007-04-04 13:53PSTYesunknownUSGS-15400 UnspecifiedUnspecifedNONE
812007-04-04 13:38PSTYesunknownUSGS-2500 UnspecifiedUnspecifedNONE
802007-04-04 13:25PSTYesunknownUSGS9560 UnspecifiedUnspecifedNONE
792007-04-04 13:12PSTYesunknownUSGS16500 UnspecifiedUnspecifedNONE
782007-04-04 12:59PSTYesunknownUSGS26100 UnspecifiedUnspecifedNONE
772007-04-04 12:49PSTYesunknownUSGS29200 UnspecifiedUnspecifedNONE
762007-04-04 12:37PSTYesunknownUSGS33700 UnspecifiedUnspecifedNONE
752007-04-04 12:27PSTYesunknownUSGS35800 UnspecifiedUnspecifedNONE
742007-04-04 12:15PSTYesunknownUSGS39700 UnspecifiedUnspecifedNONE
732007-04-04 11:29PSTYesunknownUSGS45300 UnspecifiedUnspecifedNONE
722007-04-04 11:14PSTYesunknownUSGS46000 UnspecifiedUnspecifedNONE
712007-04-04 11:00PSTYesunknownUSGS47100 UnspecifiedUnspecifedNONE
702007-04-04 10:47PSTYesunknownUSGS48100 UnspecifiedUnspecifedNONE
692007-04-04 10:10PSTYesunknownUSGS47300 UnspecifiedUnspecifedNONE
682007-04-04 09:58PSTYesunknownUSGS47200 UnspecifiedUnspecifedNONE
672007-04-04 09:47PSTYesunknownUSGS47400 UnspecifiedUnspecifedNONE
662007-04-04 09:34PSTYesunknownUSGS49600 UnspecifiedUnspecifedNONE
652007-04-04 09:08PSTYesunknownUSGS48800 UnspecifiedUnspecifedNONE
642007-04-04 08:58PSTYesunknownUSGS51200 UnspecifiedUnspecifedNONE
632007-04-04 08:48PSTYesunknownUSGS50200 UnspecifiedUnspecifedNONE
622007-04-04 08:37PSTYesunknownUSGS52300 UnspecifiedUnspecifedNONE
612007-04-04 08:23PSTYesunknownUSGS51800 UnspecifiedUnspecifedNONE
602007-04-04 08:06PSTYesunknownUSGS53000 UnspecifiedUnspecifedNONE
592007-04-04 07:54PSTYesunknownUSGS51300 UnspecifiedUnspecifedNONE
582007-04-04 07:39PSTYesunknownUSGS50300 UnspecifiedUnspecifedNONE
572007-04-04 07:23PSTYesunknownUSGS45600 UnspecifiedUnspecifedNONE
562007-04-04 07:11PSTYesunknownUSGS39700 UnspecifiedUnspecifedNONE
552007-04-04 06:54PSTYesunknownUSGS27500 UnspecifiedUnspecifedNONE
542007-04-04 06:43PSTYesunknownUSGS18900 UnspecifiedUnspecifedNONE
532006-08-28 17:33PSTYes???USGS-5630022.55 Unspecified NONE
522006-08-28 17:24PSTYes???USGS-5690022.48 Unspecified NONE
512006-08-28 17:13PSTYes???USGS-5690022.37 Unspecified NONE
502006-08-28 17:03PSTYes???USGS-5850022.29 Unspecified NONE
492006-08-28 16:53PSTYes???USGS-5870022.22 Unspecified NONE
482006-08-28 16:42PSTYes???USGS-6010022.11 Unspecified NONE
472006-08-28 16:32PSTYes???USGS-5910022.03 Unspecified NONE
462006-08-28 16:20PSTYes???USGS-6010021.93 Unspecified NONE
452006-08-28 16:11PSTYes???USGS-5910021.84 Unspecified NONE
442006-08-28 16:01PSTYes???USGS-5870021.75 Unspecified NONE
432006-08-28 15:52PSTYes???USGS-5910021.68 Unspecified NONE
422006-08-28 15:32PSTYes???USGS-5570021.51 Unspecified NONE
412006-08-28 15:22PSTYes???USGS-5350021.43 Unspecified NONE
402006-08-28 15:12PSTYes???USGS-4820021.33 Unspecified NONE
392006-08-28 15:02PSTYes???USGS-4330021.25 Unspecified NONE
382006-08-28 14:52PSTYes???USGS-3710021.15 Unspecified NONE
372006-08-28 14:37PSTYes???USGS-2600021.03 Unspecified NONE
362006-08-28 14:28PSTYes???USGS-1700020.95 Unspecified NONE
352006-08-28 14:19PSTYes???USGS-1320020.88 Unspecified NONE
342006-08-28 14:09PSTYes???USGS-291020.81 Unspecified NONE
332006-08-28 14:01PSTYes???USGS207020.75 Unspecified NONE
322006-08-28 13:53PSTYes???USGS942020.72 Unspecified NONE
312006-08-28 13:45PSTYes???USGS1330020.68 Unspecified NONE
302006-08-28 13:36PSTYes???USGS1800020.67 Unspecified NONE
292006-08-28 13:28PSTYes???USGS2110020.65 Unspecified NONE
282006-08-28 13:19PSTYes???USGS2460020.67 Unspecified NONE
272006-08-28 13:11PSTYes???USGS2630020.67 Unspecified NONE
262006-08-28 13:01PSTYes???USGS2990020.70 Unspecified NONE
252006-08-28 12:52PSTYes???USGS3110020.69 Unspecified NONE
242006-08-28 12:44PSTYes???USGS3160020.73 Unspecified NONE
232006-08-28 12:35PSTYes???USGS3310020.79 Unspecified NONE
222006-08-28 12:12PSTYes???USGS3690020.88 Unspecified NONE
212006-08-28 12:03PSTYes???USGS3720020.92 Unspecified NONE
202006-08-28 11:44PSTYes???USGS3880021.05 Unspecified NONE
192006-08-28 11:36PSTYes???USGS3940021.11 Unspecified NONE
182006-08-28 11:27PSTYes???USGS3980021.18 Unspecified NONE
172006-08-28 11:19PSTYes???USGS4130021.24 Unspecified NONE
162006-08-28 11:08PSTYes???USGS4240021.32 Unspecified NONE
152006-08-28 10:54PSTYes???USGS4310021.42 Unspecified NONE
142006-08-28 10:45PSTYes???USGS4420021.48 Unspecified NONE
132006-08-28 10:36PSTYes???USGS4570021.54 Unspecified NONE
122006-08-28 10:27PSTYes???USGS4400021.60 Unspecified NONE
112006-08-28 10:09PSTYes???USGS4980021.73 Unspecified NONE
102006-08-28 09:56PSTYes???USGS4510021.83 Unspecified NONE
92006-08-28 09:44PSTYes???USGS4470021.92 Unspecified NONE
82006-08-28 09:32PSTYes???USGS4280022.01 Unspecified NONE
72006-08-28 09:19PSTYes???USGS3880022.11 Unspecified NONE
62006-08-28 09:07PSTYes???USGS3220022.20 Unspecified NONE
52006-08-28 08:53PSTYes???USGS2370022.29 Unspecified NONE
42006-08-28 08:39PSTYes???USGS1890022.40 Unspecified NONE
32006-08-28 08:26PSTYes???USGS918022.48 Unspecified NONE
22006-08-28 08:18PSTYes???USGS406022.54 Unspecified NONE
12006-08-28 08:08PSTYesUnknownUSGS-1350 Unspecified NONE